Simultaneous Nadir Overpasses (SNOs) Predictions

Prediction of SNOs between FY3D and LANDSAT-8 Satellite Orbit:

Table of predicted SNOs for the next 14.0 days since TLE Epoch: 3/27/2021
Index Date (FY3D) Time (FY3D) Lat,Lon (FY3D) SZA (FY3D ) Date (LANDSAT-8) Time (LANDSAT-8) Lat,Lon (LANDSAT-8) SZA (LANDSAT-8 ) Distance(km) Time Diff (sec)
1 03/27/2021 08:05:00 71.01, 56.12 68.22 03/27/2021 08:05:54 71.00, 56.13 68.20 1.28 54
2 03/27/2021 08:55:42 -70.91,-136.40 111.90 03/27/2021 08:55:24 -70.88,-136.41 111.93 3.44 18
3 03/27/2021 09:46:11 70.07, 32.27 67.22 03/27/2021 09:45:04 70.07, 30.03 67.28 84.89 67
4 03/30/2021 00:21:20 71.01, 172.05 67.17 03/30/2021 00:22:22 71.02, 172.04 67.18 1.30 62
5 03/30/2021 01:12:02 -70.91, -20.46 112.95 03/30/2021 01:11:52 -70.91, -20.50 112.95 1.20 10
6 03/30/2021 02:02:36 70.33, 147.79 66.44 03/30/2021 02:01:26 70.42, 146.42 66.57 52.48 70
7 04/01/2021 16:37:39 71.01, -72.02 66.14 04/01/2021 16:38:49 71.04, -72.05 66.15 3.10 70
8 04/01/2021 17:28:21 -70.91, 95.47 113.99 04/01/2021 17:28:19 -70.93, 95.41 113.97 2.95 2
9 04/01/2021 18:19:01 70.65, -96.78 65.73 04/01/2021 18:17:48 70.71, -97.27 65.81 19.54 73
10 04/04/2021 08:54:04 71.28, 43.46 65.38 04/04/2021 08:55:15 71.16, 44.01 65.24 23.83 71
11 04/04/2021 09:44:42 -70.96,-148.69 114.96 04/04/2021 09:44:47 -70.94,-148.69 114.99 2.44 5
12 04/04/2021 10:35:25 70.86, 18.80 64.92 04/04/2021 10:34:14 70.83, 18.79 64.90 3.11 71
13 04/07/2021 01:10:29 71.54, 158.92 64.64 04/07/2021 01:11:38 71.43, 160.34 64.49 51.30 69
14 04/07/2021 02:01:02 -70.97, -32.76 115.98 04/07/2021 02:01:15 -70.95, -32.80 116.00 2.52 13
15 04/07/2021 02:51:45 70.87, 134.73 63.91 04/07/2021 02:50:41 70.89, 134.75 63.94 3.11 64
16 04/09/2021 17:26:54 71.80, -85.63 63.91 04/09/2021 17:28:01 71.70, -83.34 63.76 80.58 67
17 04/09/2021 18:17:22 -70.97, 83.16 116.97 04/09/2021 18:17:42 -71.01, 83.16 116.94 3.50 20
18 04/09/2021 19:08:04 70.87,-109.35 62.92 04/09/2021 19:07:08 70.89,-109.37 62.94 2.12 56



Historial Predications of SNOs between FY3D and LANDSAT-8
